Location: Newark
(0.5300°S, 127.4800°E)
Time: 16:22:20
(UTC+00:00)

Vanguard 3 - Pass Details

Date: 19 September 2019
Orbit: 508 x 3262 km, 33.3° (Epoch: 17 October)

Event Time Altitude Azimuth Distance (km) Brightness Sun altitude
Rises 17:54:23 0° 202° (SSW) 3,262 - -52.4°
Reaches altitude 10° 17:57:10 10° 183° (S) 2,627 - -51.7°
Maximum altitude 18:01:47 20° 137° (SE) 2,474 - -50.5°
Exits shadow 18:03:06 19° 124° (SE) 2,656 10.0 -50.2°
Drops below altitude 10° 18:08:20 10° 94° (E) 3,914 11.1 -48.9°
Sets 18:13:45 0° 80° (E) 5,497 12.1 -47.5°
